Portada
METAR-TAF:

METAR-TAF

Aeroports :

Fort Richardson, Alaska, Estats Units d'Amèrica

latitud: 61-15-45N, longitud: 149-39-17W, altitud: 115 m

Observació

L'informe es va fer fa 29 minuts, a les 14:18 UTC
Vent 3 kt del Sud
Temperatura -11°C
Humitat 85%
Pressió 1014 hPa
Visibilitat: 11.3 km
Cel cobert a una alçada de 800 ft
(lleu) gel granulat

METAR: PAFR 231418Z AUTO 17003KT 7SM -PL OVC008 M11/M13 A2993 RMK AO2 SLP148

Hora: 05:47 (14:47 UTC)


TAF: manca

Observacions i pronòstics meteorològics de més de 4000 aeroports (METAR i TAF).

Les estacions disponibles són els punts grocs i vermells al mapa.

Posi el ratolí al punt desitjat per veure el nom de l'estació.

Feu clic per veure les observacions i els pronòstics meteorològics.

Per canviar el mapa: feu clic els botons verds amb una creu de color negre per apropar; al botó verd amb un guió per allunyar la imatge; o en les fletxes verdes per a mapes adjacents.


METAR-TAF: